Location: Newark
(41.0400°S, 62.7845°W)
Time: 01:06:03
(UTC+00:00)

deb Explorer IX - Visible Passes

Search period start: 07 December 2021 00:00
Search period end: 17 December 2021 00:00
Orbit: 546 x 1085 km, 38.8° (Epoch: 05 December)

Date Brightness Start Highest point End Pass type
(mag) Time Alt. Az. Time Alt. Az. Time Alt. Az.
07 Dec ? 01:14:11 10° NW 01:19:56 49° NNE 01:26:31 10° E visible
07 Dec ? 03:00:23 10° W 03:06:51 74° N 03:14:02 10° E visible
07 Dec ? 04:47:13 10° W 04:54:01 62° NNW 05:01:11 10° ENE visible
07 Dec ? 06:34:38 10° W 06:40:46 31° NNW 06:46:55 10° NNE visible
08 Dec ? 00:49:14 10° NW 00:54:49 48° NNE 01:01:14 10° E visible
08 Dec ? 02:35:23 10° W 02:41:41 74° N 02:48:47 10° E visible
08 Dec ? 04:22:09 10° W 04:28:49 62° NNW 04:35:58 10° ENE visible
08 Dec ? 06:09:30 10° W 06:15:35 31° NNW 06:21:46 10° NNE visible
09 Dec ? 00:24:18 10° NW 00:29:42 47° NNE 00:35:57 10° E visible
09 Dec ? 02:10:23 10° W 02:16:31 74° N 02:23:00 12° E visible
09 Dec ? 03:57:05 10° W 04:03:37 62° NNW 04:04:02 61° N visible
09 Dec ? 05:44:22 10° W 05:57:51 - NNE 05:45:05 13° W visible
09 Dec ? 23:59:24 10° NW 00:04:36 46° NNE 00:10:40 10° E visible
10 Dec ? 01:45:24 10° W 01:51:21 73° N 01:57:53 11° E visible
10 Dec ? 03:32:02 10° W 03:38:25 62° NNW 03:38:58 60° N visible
10 Dec ? 05:19:14 10° W 05:20:03 13° W 05:20:03 13° W visible
11 Dec ? 01:20:26 10° W 01:26:12 73° N 01:32:54 10° E visible
11 Dec ? 03:07:00 10° W 03:13:13 62° NNW 03:14:14 55° NNE visible
11 Dec ? 04:54:08 10° W 04:55:20 15° W 04:55:20 15° W visible
12 Dec ? 00:55:27 10° W 01:01:03 72° N 01:07:36 10° E visible
12 Dec ? 02:41:59 10° W 02:48:01 62° NNW 02:49:40 48° NE visible
12 Dec ? 04:29:02 10° W 04:30:47 18° WNW 04:30:47 18° WNW visible
13 Dec ? 00:30:30 10° WNW 00:35:55 71° N 00:42:17 10° E visible
13 Dec ? 02:16:57 10° W 02:22:50 61° NNW 02:25:11 39° NE visible
13 Dec ? 04:03:58 10° W 04:06:18 21° WNW 04:06:18 21° WNW visible
14 Dec ? 00:05:32 10° WNW 00:10:46 71° N 00:16:57 10° E visible
14 Dec ? 01:51:57 10° W 01:57:38 61° NNW 02:00:46 31° NE visible
14 Dec ? 03:38:54 10° W 03:41:53 24° WNW 03:41:53 24° WNW visible
15 Dec ? 01:26:57 10° W 01:32:28 60° NNW 01:36:23 23° ENE visible
15 Dec ? 03:13:50 10° W 03:17:30 27° NW 03:17:30 27° NW visible
16 Dec ? 01:01:57 10° W 01:07:18 60° NNW 01:12:04 17° ENE visible
16 Dec ? 02:48:48 10° W 02:53:11 29° NW 02:53:11 29° NW visible
